FW7828 Weather Reports


time (UTC)temp
C
wind
direction
speed
KPH
gust
KPH
rain 1hr
cm
rain 24hr
cm
rain mn
cm
humidity
%
barometer
mb
20260831232249 27 252 0.0 0.0 0.00 0.00 0.00 88 1016.2
20260831231744 27 252 0.0 0.0 0.00 0.00 0.00 87 1016.4
20260831231241 27 251 0.0 0.0 0.00 0.00 0.00 87 1016.3
20260831230736 27 264 0.0 0.0 0.00 0.00 0.00 86 1016.4
20260831230231 27 16 0.0 0.0 0.00 0.00 0.00 85 1016.2
20260831225730 28 16 1.6 1.6 0.00 0.00 0.00 84 1016.2
20260831225226 28 358 1.6 1.6 0.00 0.00 0.00 83 1016.5
20260831224720 28 17 0.0 1.6 0.00 0.00 0.00 83 1016.6
20260831224216 28 0 1.6 1.6 0.00 0.00 0.00 82 1016.5
20260831223711 28 36 0.0 0.0 0.00 0.00 0.00 82 1016.7
20260831223208 28 6 0.0 0.0 0.00 0.00 0.00 82 1016.8
20260831222703 28 81 1.6 1.6 0.00 0.00 0.00 82 1016.5
20260831222159 28 26 1.6 1.6 0.00 0.00 0.00 81 1016.5
20260831221654 28 23 0.0 0.0 0.00 0.00 0.00 80 1016.5
20260831221149 28 12 1.6 1.6 0.00 0.00 0.00 80 1016.6
20260831220644 28 13 1.6 1.6 0.00 0.00 0.00 79 1016.5
20260831220139 28 56 0.0 0.0 0.00 0.00 0.00 79 1016.5
20260831215635 28 12 1.6 1.6 0.00 0.00 0.00 78 1016.6
20260831215130 28 23 0.0 0.0 0.00 0.00 0.00 78 1016.4
20260831214627 29 28 0.0 0.0 0.00 0.00 0.00 77 1016.4
20260831214123 29 58 0.0 0.0 0.00 0.00 0.00 77 1016.3
20260831213620 29 49 0.0 0.0 0.00 0.00 0.00 77 1016.6
20260831213115 30 25 0.0 0.0 0.00 0.00 0.00 74 1016.3
20260831212611 30 32 0.0 1.6 0.00 0.00 0.00 74 1016.2
20260831212107 30 325 1.6 1.6 0.00 0.00 0.00 75 1016.6
20260831211607 30 45 0.0 0.0 0.00 0.00 0.00 74 1016.6
20260831211106 30 15 1.6 1.6 0.00 0.00 0.00 73 1016.4
20260831210601 30 96 3.2 3.2 0.00 0.00 0.00 70 1016.6
20260831210057 30 40 0.0 0.0 0.00 0.00 0.00 73 1016.6
20260831205556 30 12 0.0 0.0 0.00 0.00 0.00 70 1016.7
20260831205053 30 5 1.6 1.6 0.00 0.00 0.00 68 1016.6
20260831204547 30 9 3.2 3.2 0.00 0.00 0.00 69 1016.8
20260831204045 30 20 0.0 1.6 0.00 0.00 0.00 68 1016.7
20260831203540 31 15 0.0 1.6 0.00 0.00 0.00 64 1016.8
20260831203039 31 7 1.6 1.6 0.00 0.00 0.00 64 1016.5
20260831202533 31 6 0.0 0.0 0.00 0.00 0.00 61 1016.7
20260831202033 32 5 0.0 0.0 0.00 0.00 0.00 61 1016.6
20260831201532 32 352 0.0 0.0 0.00 0.00 0.00 61 1016.6
20260831201027 32 359 0.0 0.0 0.00 0.00 0.00 61 1016.7
20260831200523 32 318 0.0 0.0 0.00 0.00 0.00 60 1016.6
20260831200018 32 1 0.0 1.6 0.00 0.00 0.00 57 1016.6
20260831195513 32 351 0.0 1.6 0.00 0.00 0.00 62 1016.6
20260831195013 32 2 0.0 0.0 0.00 0.00 0.00 56 1016.5
20260831194508 33 359 0.0 0.0 0.00 0.00 0.00 58 1016.8
20260831194003 33 202 0.0 0.0 0.00 0.00 0.00 52 1016.9
20260831193458 33 323 0.0 0.0 0.00 0.00 0.00 59 1016.7
20260831192953 32 228 0.0 0.0 0.00 0.00 0.00 53 1017.0
20260831192448 32 235 0.0 0.0 0.00 0.00 0.00 57 1016.9
20260831191942 32 81 1.6 1.6 0.00 0.00 0.00 56 1016.9
20260831191439 32 8 0.0 0.0 0.00 0.00 0.00 61 1017.1
20260831190935 31 347 0.0 0.0 0.00 0.00 0.00 67 1017.2
20260831190430 32 145 1.6 1.6 0.00 0.00 0.00 63 1017.2
20260831185929 32 72 0.0 0.0 0.00 0.00 0.00 63 1017.5
20260831185425 31 215 1.6 1.6 0.00 0.00 0.00 60 1017.3
20260831184924 31 116 1.6 3.2 0.00 0.00 0.00 70 1017.4
20260831184419 31 26 0.0 1.6 0.00 0.00 0.00 70 1017.4
20260831183915 31 184 1.6 3.2 0.00 0.00 0.00 67 1017.5
20260831183414 31 158 0.0 1.6 0.00 0.00 0.00 70 1017.7
20260831182914 31 115 1.6 1.6 0.00 0.00 0.00 68 1017.5
20260831182409 31 176 1.6 1.6 0.00 0.00 0.00 67 1017.4
20260831181904 31 99 1.6 1.6 0.00 0.00 0.00 72 1017.6
20260831181359 31 111 1.6 1.6 0.00 0.00 0.00 73 1017.5
20260831180854 31 111 0.0 1.6 0.00 0.00 0.00 74 1017.8
20260831180348 31 84 1.6 1.6 0.00 0.00 0.00 71 1017.9
20260831175848 31 127 1.6 1.6 0.00 0.00 0.00 74 1017.9
20260831175344 30 131 3.2 3.2 0.00 0.00 0.00 76 1017.9
20260831174840 30 118 4.8 4.8 0.00 0.00 0.00 75 1018.0
20260831174335 30 136 1.6 1.6 0.00 0.00 0.00 74 1017.9
20260831173834 31 122 1.6 1.6 0.00 0.00 0.00 74 1018.0
20260831173334 30 98 1.6 1.6 0.00 0.00 0.00 74 1017.9
20260831172829 30 135 1.6 1.6 0.00 0.00 0.00 75 1018.0
20260831172325 31 137 1.6 1.6 0.00 0.00 0.00 74 1018.0
20260831171825 31 117 1.6 1.6 0.00 0.00 0.00 74 1018.0
20260831171321 30 214 0.0 0.0 0.00 0.00 0.00 75 1018.1
20260831170818 30 189 3.2 3.2 0.00 0.00 0.00 74 1018.3
20260831170314 30 281 3.2 3.2 0.00 0.00 0.00 73 1018.2
20260831165810 30 178 0.0 1.6 0.00 0.00 0.00 75 1018.2
20260831165306 30 244 3.2 3.2 0.00 0.00 0.00 76 1018.2
20260831164802 30 279 1.6 1.6 0.00 0.00 0.00 76 1018.2
20260831164258 30 237 1.6 3.2 0.00 0.00 0.00 74 1018.5
20260831163753 30 124 0.0 0.0 0.00 0.00 0.00 77 1018.5
20260831163249 30 259 3.2 3.2 0.00 0.00 0.00 76 1018.2
20260831162747 30 65 1.6 3.2 0.00 0.00 0.00 77 1018.5
20260831162242 30 128 1.6 1.6 0.00 0.00 0.00 76 1018.6
20260831161736 29 152 1.6 3.2 0.00 0.00 0.00 77 1018.5
20260831161233 29 124 1.6 3.2 0.00 0.00 0.00 76 1018.6
20260831160732 29 93 3.2 3.2 0.00 0.00 0.00 77 1018.5
20260831160227 29 81 1.6 1.6 0.00 0.00 0.00 77 1018.5
20260831155727 30 92 1.6 3.2 0.00 0.00 0.00 76 1018.6
20260831155223 30 92 1.6 1.6 0.00 0.00 0.00 76 1018.5
20260831154719 29 116 1.6 1.6 0.00 0.00 0.00 78 1018.5
20260831154215 29 161 3.2 3.2 0.00 0.00 0.00 77 1018.3
20260831153713 29 99 3.2 3.2 0.00 0.00 0.00 78 1018.4
20260831153209 30 154 3.2 3.2 0.00 0.00 0.00 76 1018.4
20260831152705 29 164 3.2 3.2 0.00 0.00 0.00 77 1018.5
20260831152201 29 160 3.2 3.2 0.00 0.00 0.00 77 1018.4
20260831151700 29 129 0.0 1.6 0.00 0.00 0.00 79 1018.5
20260831151155 29 160 1.6 1.6 0.00 0.00 0.00 79 1018.5
20260831150650 29 176 0.0 1.6 0.00 0.00 0.00 80 1018.7
20260831150145 28 244 1.6 1.6 0.00 0.00 0.00 79 1018.6
20260831145644 28 138 3.2 3.2 0.00 0.00 0.00 81 1018.5
20260831145141 28 121 1.6 3.2 0.00 0.00 0.00 81 1018.7
20260831144636 28 125 1.6 3.2 0.00 0.00 0.00 81 1018.8
20260831144132 28 119 3.2 3.2 0.00 0.00 0.00 82 1018.6
20260831143631 28 74 1.6 1.6 0.00 0.00 0.00 77 1018.6
20260831143127 28 28 0.0 1.6 0.00 0.00 0.00 79 1018.4
20260831142623 28 44 1.6 1.6 0.00 0.00 0.00 78 1018.6
20260831142119 28 58 0.0 0.0 0.00 0.00 0.00 78 1018.4
20260831141617 28 21 0.0 0.0 0.00 0.00 0.00 79 1018.5
20260831141113 28 49 0.0 0.0 0.00 0.00 0.00 80 1018.4
20260831140612 27 48 0.0 0.0 0.00 0.00 0.00 81 1018.3
20260831140107 27 213 0.0 0.0 0.00 0.00 0.00 81 1018.3
20260831135604 27 88 0.0 0.0 0.00 0.00 0.00 82 1018.3
20260831135101 27 7 0.0 0.0 0.00 0.00 0.00 84 1018.1
20260831134556 27 30 1.6 1.6 0.00 0.00 0.00 82 1017.9
20260831134051 27 85 1.6 1.6 0.00 0.00 0.00 84 1018.2
20260831133550 26 1 0.0 0.0 0.00 0.00 0.00 85 1018.1
20260831133045 26 327 0.0 1.6 0.00 0.00 0.00 86 1018.1
20260831132542 26 169 1.6 1.6 0.00 0.00 0.00 86 1018.1
20260831132040 25 12 1.6 1.6 0.00 0.00 0.00 89 1018.1
20260831131541 25 134 1.6 1.6 0.00 0.00 0.00 91 1017.9
20260831131037 25 32 0.0 0.0 0.00 0.00 0.00 94 1018.0
20260831130532 24 136 0.0 0.0 0.00 0.00 0.00 95 1018.0
20260831130027 24 0 0.0 1.6 0.00 0.00 0.00 96 1017.9
20260831125520 23 353 0.0 1.6 0.00 0.00 0.00 97 1017.9
20260831125016 23 357 0.0 0.0 0.00 0.00 0.00 97 1017.7
20260831124513 23 350 0.0 0.0 0.00 0.00 0.00 97 1017.9
20260831124008 23 350 0.0 0.0 0.00 0.00 0.00 97 1018.0
20260831123507 23 345 0.0 0.0 0.00 0.00 0.00 97 1017.9
20260831123002 23 254 0.0 0.0 0.00 0.00 0.00 97 1018.0
20260831122457 23 350 0.0 0.0 0.00 0.00 0.00 97 1017.9
20260831121952 22 24 0.0 0.0 0.00 0.00 0.00 97 1018.2
20260831121447 22 13 0.0 0.0 0.00 0.00 0.00 97 1018.1
20260831120943 22 233 0.0 0.0 0.00 0.00 0.00 97 1018.1
20260831120442 22 25 0.0 0.0 0.00 0.00 0.00 97 1017.9
20260831115937 22 1 0.0 0.0 0.00 0.00 0.00 97 1017.9
20260831115433 22 0 0.0 0.0 0.00 0.00 0.00 97 1018.0
20260831114933 22 3 0.0 0.0 0.00 0.00 0.00 97 1018.0
20260831114432 22 358 0.0 0.0 0.00 0.00 0.00 97 1018.2
20260831113928 22 357 0.0 0.0 0.00 0.00 0.00 97 1018.3
20260831113427 22 343 0.0 0.0 0.00 0.00 0.00 97 1018.2
20260831112922 21 354 0.0 0.0 0.00 0.00 0.00 97 1018.1
20260831112422 21 341 0.0 0.0 0.00 0.00 0.00 97 1018.1
20260831111918 21 337 0.0 0.0 0.00 0.00 0.00 97 1018.1
20260831111414 21 348 0.0 0.0 0.00 0.00 0.00 97 1018.0
20260831110909 21 348 0.0 0.0 0.00 0.00 0.00 97 1018.0
20260831110404 21 350 0.0 0.0 0.00 0.00 0.00 97 1018.2
20260831105902 21 350 0.0 0.0 0.00 0.00 0.00 97 1017.9
20260831105358 21 329 0.0 0.0 0.00 0.00 0.00 97 1017.9
20260831104853 21 345 0.0 0.0 0.00 0.00 0.00 97 1017.8
20260831104349 21 324 0.0 0.0 0.00 0.00 0.00 97 1017.8
20260831103844 21 330 0.0 0.0 0.00 0.00 0.00 97 1018.0
20260831103340 21 339 0.0 0.0 0.00 0.00 0.00 97 1017.8
20260831102835 21 338 0.0 0.0 0.00 0.00 0.00 97 1017.7
20260831102329 21 5 0.0 0.0 0.00 0.00 0.00 97 1017.8
20260831101825 21 342 0.0 0.0 0.00 0.00 0.00 97 1017.7
20260831101320 21 349 0.0 0.0 0.00 0.00 0.00 97 1017.8
20260831100816 21 349 0.0 0.0 0.00 0.00 0.00 97 1017.7
20260831100312 21 349 0.0 0.0 0.00 0.00 0.00 97 1017.6
20260831095811 21 349 0.0 0.0 0.00 0.00 0.00 97 1017.7
20260831095306 21 349 0.0 0.0 0.00 0.00 0.00 97 1017.7
20260831094801 21 349 0.0 0.0 0.00 0.00 0.00 97 1017.6
20260831094256 21 346 0.0 0.0 0.00 0.00 0.00 97 1017.5
20260831093752 21 351 0.0 0.0 0.00 0.00 0.00 97 1017.3
20260831093252 21 356 0.0 0.0 0.00 0.00 0.00 97 1017.7
20260831092749 21 349 0.0 1.6 0.00 0.00 0.00 97 1017.6
20260831092244 21 357 0.0 1.6 0.00 0.00 0.00 97 1018.0
20260831091743 22 320 0.0 0.0 0.00 0.00 0.00 97 1017.9
20260831091240 22 334 0.0 0.0 0.00 0.00 0.00 97 1017.7
20260831090735 22 322 0.0 0.0 0.00 0.00 0.00 97 1017.8
20260831090231 22 346 0.0 0.0 0.00 0.00 0.00 97 1017.6
20260831085727 22 352 0.0 0.0 0.00 0.00 0.00 97 1017.7
20260831085221 22 339 1.6 1.6 0.00 0.00 0.00 97 1017.5
20260831084717 22 333 0.0 0.0 0.00 0.00 0.00 97 1017.5
20260831084213 22 339 0.0 0.0 0.00 0.00 0.00 97 1017.4
20260831083709 22 327 0.0 1.6 0.00 0.00 0.00 97 1017.6
20260831083204 22 327 0.0 0.0 0.00 0.00 0.00 97 1017.6
20260831082702 22 336 0.0 0.0 0.00 0.00 0.00 97 1017.5
20260831082158 22 345 0.0 0.0 0.00 0.00 0.00 97 1017.5
20260831081653 22 329 0.0 0.0 0.00 0.00 0.00 97 1017.5
20260831081149 22 322 0.0 0.0 0.00 0.00 0.00 97 1017.7
20260831080645 22 333 0.0 1.6 0.00 0.00 0.00 97 1017.6
20260831080139 22 2 0.0 0.0 0.00 0.00 0.00 97 1017.7
20260831075635 22 328 0.0 0.0 0.00 0.00 0.00 97 1017.8
20260831075130 22 352 0.0 0.0 0.00 0.00 0.00 97 1017.8
20260831074629 22 334 1.6 1.6 0.00 0.00 0.00 97 1017.7
20260831074124 22 338 0.0 0.0 0.00 0.00 0.00 97 1017.6
20260831073619 22 342 0.0 0.0 0.00 0.00 0.00 97 1017.8
20260831073118 22 349 0.0 0.0 0.00 0.00 0.00 97 1017.9
20260831072614 22 355 1.6 1.6 0.00 0.00 0.00 97 1017.7
20260831072111 22 341 1.6 1.6 0.00 0.00 0.00 96 1017.9
20260831071609 22 349 0.0 0.0 0.00 0.00 0.00 96 1017.6
20260831071104 23 343 0.0 0.0 0.00 0.00 0.00 96 1017.6
20260831070603 23 342 0.0 0.0 0.00 0.00 0.00 96 1017.8
20260831070058 23 342 0.0 0.0 0.00 0.00 0.00 96 1017.8
20260831065556 23 342 0.0 0.0 0.00 0.00 0.00 96 1017.8
20260831065050 23 342 0.0 0.0 0.00 0.00 0.00 96 1017.8
20260831064546 23 340 0.0 1.6 0.00 0.00 0.00 96 1017.7
20260831064041 23 342 0.0 0.0 0.00 0.00 0.00 96 1018.1
20260831063537 23 343 0.0 0.0 0.00 0.00 0.00 96 1017.9
20260831063031 23 349 0.0 0.0 0.00 0.00 0.00 96 1017.8
20260831062526 23 349 0.0 0.0 0.00 0.00 0.00 96 1017.8
20260831062026 23 349 0.0 0.0 0.00 0.00 0.00 96 1018.1
20260831061524 23 349 0.0 0.0 0.00 0.00 0.00 96 1018.0
20260831061020 23 351 0.0 0.0 0.00 0.00 0.00 96 1018.1
20260831060520 23 355 0.0 0.0 0.00 0.00 0.00 96 1018.2
20260831060016 23 355 0.0 0.0 0.00 0.00 0.00 96 1018.1
20260831055510 23 356 0.0 0.0 0.00 0.00 0.00 96 1018.1
20260831055006 23 2 0.0 0.0 0.00 0.00 0.00 96 1018.3
20260831054506 23 354 0.0 0.0 0.00 0.00 0.00 96 1018.2
20260831054005 23 348 0.0 0.0 0.00 0.00 0.00 96 1018.5
20260831053503 23 350 0.0 0.0 0.00 0.00 0.00 96 1018.5
20260831052958 23 350 0.0 0.0 0.00 0.00 0.00 96 1018.4
20260831052457 23 342 0.0 0.0 0.00 0.00 0.00 96 1018.8
20260831051956 23 350 0.0 0.0 0.00 0.00 0.00 96 1018.9
20260831051455 23 350 0.0 0.0 0.00 0.00 0.00 96 1018.6
20260831050954 23 350 0.0 0.0 0.00 0.00 0.00 96 1018.5
20260831050449 23 359 0.0 0.0 0.00 0.00 0.00 96 1018.6
20260831045948 23 339 0.0 0.0 0.00 0.00 0.00 96 1018.6
20260831045447 23 348 0.0 0.0 0.00 0.00 0.00 96 1018.6
20260831044942 23 353 0.0 0.0 0.00 0.00 0.00 96 1018.5
20260831044437 23 341 0.0 0.0 0.00 0.00 0.00 96 1018.6
20260831043933 23 346 0.0 0.0 0.00 0.00 0.00 96 1018.8
20260831043433 23 350 0.0 0.0 0.00 0.00 0.00 96 1018.5
20260831042928 23 355 0.0 0.0 0.00 0.00 0.00 96 1018.7
20260831042427 23 355 0.0 0.0 0.00 0.00 0.00 96 1018.6
20260831041922 23 355 0.0 0.0 0.00 0.00 0.00 96 1018.7
20260831041422 23 357 0.0 0.0 0.00 0.00 0.00 95 1018.6
20260831040917 23 352 0.0 0.0 0.00 0.00 0.00 95 1018.6
20260831040412 23 352 0.0 0.0 0.00 0.00 0.00 95 1018.6
20260831035909 23 350 0.0 0.0 0.00 0.00 0.00 95 1018.4
20260831035408 23 3 0.0 0.0 0.00 0.00 0.00 95 1018.4
20260831034903 23 10 0.0 0.0 0.00 0.00 0.00 95 1018.4
20260831034358 23 340 0.0 0.0 0.00 0.00 0.00 95 1018.7
20260831033853 23 341 1.6 1.6 0.00 0.00 0.00 95 1018.6
20260831033348 23 352 1.6 1.6 0.00 0.00 0.00 95 1018.6
20260831032844 23 346 0.0 0.0 0.00 0.00 0.00 95 1018.3
20260831032344 23 346 0.0 0.0 0.00 0.00 0.00 95 1018.4
20260831031839 23 354 0.0 0.0 0.00 0.00 0.00 95 1018.4
20260831031338 23 325 0.0 0.0 0.00 0.00 0.00 95 1018.7
20260831030834 23 337 0.0 0.0 0.00 0.00 0.00 95 1018.9
20260831030332 23 317 0.0 0.0 0.00 0.00 0.00 95 1018.6
20260831025826 23 354 0.0 0.0 0.00 0.00 0.00 95 1018.6
20260831025325 23 350 0.0 0.0 0.00 0.00 0.00 95 1018.6
20260831024821 23 293 0.0 1.6 0.00 0.00 0.00 95 1018.8
20260831024320 24 348 0.0 0.0 0.00 0.00 0.00 95 1018.6
20260831023819 24 341 0.0 0.0 0.00 0.00 0.00 95 1018.6
20260831023318 24 347 0.0 0.0 0.00 0.00 0.00 95 1018.7
20260831022814 24 345 0.0 0.0 0.00 0.00 0.00 94 1018.9
20260831022312 24 348 0.0 0.0 0.00 0.00 0.00 94 1018.7
20260831021808 24 347 0.0 0.0 0.00 0.00 0.00 94 1018.8
20260831021302 24 351 0.0 0.0 0.00 0.00 0.00 94 1018.8
20260831020758 24 354 0.0 0.0 0.00 0.00 0.00 94 1018.9
20260831020257 24 359 0.0 0.0 0.00 0.00 0.00 94 1018.8
20260831015753 24 0 0.0 0.0 0.00 0.00 0.00 94 1018.8
20260831015248 24 0 0.0 0.0 0.00 0.00 0.00 94 1018.7
20260831014743 24 0 0.0 0.0 0.00 0.00 0.00 94 1019.0
20260831014243 24 0 0.0 0.0 0.00 0.00 0.00 94 1018.7
20260831013739 24 359 0.0 0.0 0.00 0.00 0.00 93 1018.9
20260831013238 24 0 0.0 0.0 0.00 0.00 0.00 93 1018.7
20260831012733 24 0 0.0 0.0 0.00 0.00 0.00 93 1018.7
20260831012229 24 0 0.0 0.0 0.00 0.00 0.00 93 1018.9
20260831011727 24 359 0.0 0.0 0.00 0.00 0.00 93 1018.8
20260831011224 25 1 0.0 0.0 0.00 0.00 0.00 93 1018.7
20260831010719 25 0 0.0 0.0 0.00 0.00 0.00 92 1018.8
20260831010214 25 359 0.0 0.0 0.00 0.00 0.00 92 1018.6
20260831005709 25 0 0.0 0.0 0.00 0.00 0.00 92 1018.5
20260831005204 25 1 0.0 0.0 0.00 0.00 0.00 92 1018.4
20260831004659 25 0 0.0 0.0 0.00 0.00 0.00 92 1018.7
20260831004155 25 0 0.0 0.0 0.00 0.00 0.00 92 1018.5
20260831003651 25 0 0.0 0.0 0.00 0.00 0.00 92 1018.4
20260831003147 25 1 0.0 0.0 0.00 0.00 0.00 91 1018.6
20260831002645 25 0 0.0 0.0 0.00 0.00 0.00 91 1018.6
20260831002141 25 359 0.0 0.0 0.00 0.00 0.00 91 1018.6
20260831001637 25 0 0.0 0.0 0.00 0.00 0.00 90 1018.2
20260831001132 25 354 0.0 0.0 0.00 0.00 0.00 90 1018.5
20260831000629 25 306 0.0 1.6 0.00 0.00 0.00 89 1018.5
20260831000128 25 3 0.0 0.0 0.00 0.00 0.00 89 1018.3
20260830235627 25 217 0.0 0.0 0.00 0.00 0.00 89 1018.4
20260830235122 26 33 0.0 0.0 0.00 0.00 0.00 89 1018.4
20260830234617 26 137 0.0 0.0 0.00 0.00 0.00 88 1018.4
20260830234112 26 119 1.6 3.2 0.00 0.00 0.00 88 1018.4
20260830233608 26 102 0.0 0.0 0.00 0.00 0.00 88 1018.6
20260830233104 26 131 0.0 0.0 0.00 0.00 0.00 88 1018.8
20260830232559 26 121 0.0 0.0 0.00 0.00 0.00 88 1018.6